Tracking 18852 objects as of 24-Nov-2017
HD Live streaming from Space Station
objects crossing your sky now

FENGYUN 1C DEB

Track FENGYUN 1C DEB now!
10-day predictions


NORAD ID: 32329
Int'l Code: 1999-025CXW
Perigee: 795.2 km
Apogee: 879.9 km
Inclination: 99.9 °
Period: 101.5 minutes
Semi major axis: 7208 km
RCS: 0.0108 m2 (small)
Launch date: May 10, 1999
Source: People's Republic of China (PRC)
Launch site: Taiyaun Space Center, China (TSC)

Note: This is SATELLITE DEBRIS
aabbcc
Your satellite tracking list
Your tracking list is empty




NASA's NSSDC Master Catalog

Two Line Element Set (TLE):
1 32329U 99025CXW 17328.17920649 +.00000942 +00000-0 +47352-3 0  9992
2 32329 099.9444 084.8582 0058785 180.3316 179.7826 14.18512799161263
Source of the keplerian elements: AFSPC